Time,TemperatureF,DewpointF,PressureIn,WindDirection,WindDirectionDegrees,WindSpeedMPH,WindSpeedGustMPH,Humidity,HourlyPrecipIn,Conditions,Clouds,dailyrainin,SoftwareType,DateUTC
2013-04-25 00:00:00,68.1,53.7,30.21,ENE,61,11.0,12.0,60,0.00,,,0.00,VWS V14.01,2013-04-24 22:00:00,
2013-04-25 00:02:00,68.1,53.7,30.21,ENE,61,11.0,12.0,60,0.00,,,0.00,VWS V14.01,2013-04-24 22:02:00,
2013-04-25 00:07:00,68.3,53.9,30.21,ENE,59,14.0,14.0,60,0.00,,,0.00,VWS V14.01,2013-04-24 22:07:00,
2013-04-25 00:10:00,68.3,53.9,30.21,ENE,63,5.0,14.0,60,0.00,,,0.00,VWS V14.01,2013-04-24 22:10:00,
2013-04-25 00:12:00,68.3,53.9,30.21,ENE,65,5.0,5.0,60,0.00,,,0.00,VWS V14.01,2013-04-24 22:12:00,
2013-04-25 00:17:00,68.1,53.7,30.22,ENE,73,3.0,8.0,60,0.00,,,0.00,VWS V14.01,2013-04-24 22:17:00,
2013-04-25 00:20:00,68.1,53.7,30.21,East,87,2.0,8.0,60,0.00,,,0.00,VWS V14.01,2013-04-24 22:20:00,
2013-04-25 00:22:00,68.1,53.7,30.22,East,86,3.0,3.0,60,0.00,,,0.00,VWS V14.01,2013-04-24 22:22:00,
2013-04-25 00:27:00,68.1,53.7,30.22,NE,53,0.0,5.0,60,0.00,,,0.00,VWS V14.01,2013-04-24 22:27:00,
2013-04-25 00:30:00,67.9,54.0,30.21,NE,54,0.0,5.0,61,0.00,,,0.00,VWS V14.01,2013-04-24 22:30:00,
2013-04-25 00:32:00,67.8,53.9,30.21,NE,54,0.0,1.0,61,0.00,,,0.00,VWS V14.01,2013-04-24 22:32:00,
2013-04-25 00:37:00,67.1,53.7,30.21,NE,54,0.0,1.0,62,0.00,,,0.00,VWS V14.01,2013-04-24 22:37:00,
2013-04-25 00:40:00,67.0,53.6,30.21,NE,54,0.0,2.0,62,0.00,,,0.00,VWS V14.01,2013-04-24 22:40:00,
2013-04-25 00:42:00,67.0,53.6,30.21,NE,54,0.0,1.0,62,0.00,,,0.00,VWS V14.01,2013-04-24 22:42:00,
2013-04-25 00:47:00,67.0,53.6,30.22,NE,54,0.0,1.0,62,0.00,,,0.00,VWS V14.01,2013-04-24 22:47:00,
2013-04-25 00:50:00,66.9,53.5,30.22,NE,54,0.0,1.0,62,0.00,,,0.00,VWS V14.01,2013-04-24 22:50:00,
2013-04-25 00:52:00,66.9,53.5,30.22,NE,54,0.0,0.0,62,0.00,,,0.00,VWS V14.01,2013-04-24 22:52:00,
2013-04-25 00:57:00,66.9,53.5,30.22,NE,54,0.0,3.0,62,0.00,,,0.00,VWS V14.01,2013-04-24 22:57:00,
2013-04-25 01:00:00,66.5,53.5,30.22,NE,54,3.0,3.0,63,0.00,,,0.00,VWS V14.01,2013-04-24 23:00:00,
2013-04-25 01:02:00,66.4,53.4,30.22,NE,54,1.0,2.0,63,0.00,,,0.00,VWS V14.01,2013-04-24 23:02:00,
2013-04-25 01:07:00,65.8,53.3,30.22,North,360,3.0,6.0,64,0.00,,,0.00,VWS V14.01,2013-04-24 23:07:00,
2013-04-25 01:10:00,65.3,53.7,30.22,North,360,3.0,6.0,66,0.00,,,0.00,VWS V14.01,2013-04-24 23:10:00,
2013-04-25 01:12:00,65.2,53.6,30.22,North,360,4.0,4.0,66,0.00,,,0.00,VWS V14.01,2013-04-24 23:12:00,
2013-04-25 01:17:00,64.8,53.6,30.21,North,360,0.0,4.0,67,0.00,,,0.00,VWS V14.01,2013-04-24 23:17:00,
2013-04-25 01:20:00,64.7,53.5,30.22,North,360,1.0,4.0,67,0.00,,,0.00,VWS V14.01,2013-04-24 23:20:00,
2013-04-25 01:23:00,64.7,53.5,30.22,North,360,2.0,2.0,67,0.00,,,0.00,VWS V14.01,2013-04-24 23:23:00,
2013-04-25 01:28:00,64.8,53.6,30.22,North,360,1.0,2.0,67,0.00,,,0.00,VWS V14.01,2013-04-24 23:28:00,
2013-04-25 01:30:00,64.8,53.6,30.22,North,360,3.0,3.0,67,0.00,,,0.00,VWS V14.01,2013-04-24 23:30:00,
2013-04-25 01:33:00,64.8,53.6,30.22,NNE,15,2.0,4.0,67,0.00,,,0.00,VWS V14.01,2013-04-24 23:33:00,
2013-04-25 01:38:00,64.6,53.4,30.22,NNE,32,4.0,5.0,67,0.00,,,0.00,VWS V14.01,2013-04-24 23:38:00,
2013-04-25 01:40:00,64.5,53.7,30.22,NE,36,4.0,6.0,68,0.00,,,0.00,VWS V14.01,2013-04-24 23:40:00,
2013-04-25 01:43:00,64.5,53.7,30.22,NE,36,3.0,4.0,68,0.00,,,0.00,VWS V14.01,2013-04-24 23:43:00,
2013-04-25 01:50:00,63.9,53.5,30.21,NNE,33,3.0,6.0,69,0.00,,,0.00,VWS V14.01,2013-04-24 23:50:00,
2013-04-25 01:53:00,63.9,53.5,30.21,NE,34,3.0,4.0,69,0.00,,,0.00,VWS V14.01,2013-04-24 23:53:00,
2013-04-25 01:58:00,64.0,53.6,30.21,NE,34,2.0,4.0,69,0.00,,,0.00,VWS V14.01,2013-04-24 23:58:00,
2013-04-25 02:00:00,64.0,53.2,30.22,NE,35,2.0,4.0,68,0.00,,,0.00,VWS V14.01,2013-04-25 00:00:00,
2013-04-25 02:03:00,64.0,53.2,30.22,NE,35,1.0,3.0,68,0.00,,,0.00,VWS V14.01,2013-04-25 00:03:00,
2013-04-25 02:08:00,63.7,53.3,30.22,NE,35,3.0,3.0,69,0.00,,,0.00,VWS V14.01,2013-04-25 00:08:00,
2013-04-25 02:10:00,63.9,53.1,30.21,NE,35,3.0,4.0,68,0.00,,,0.00,VWS V14.01,2013-04-25 00:10:00,
2013-04-25 02:13:00,63.8,53.0,30.21,NE,35,4.0,5.0,68,0.00,,,0.00,VWS V14.01,2013-04-25 00:13:00,
2013-04-25 02:18:00,63.8,53.0,30.21,NE,35,3.0,5.0,68,0.00,,,0.00,VWS V14.01,2013-04-25 00:18:00,
2013-04-25 02:20:00,63.9,53.1,30.21,NNE,32,3.0,6.0,68,0.00,,,0.00,VWS V14.01,2013-04-25 00:20:00,
2013-04-25 02:23:00,63.9,53.1,30.21,NNE,32,5.0,6.0,68,0.00,,,0.00,VWS V14.01,2013-04-25 00:23:00,
2013-04-25 02:28:00,63.8,53.0,30.22,NE,34,3.0,6.0,68,0.00,,,0.00,VWS V14.01,2013-04-25 00:28:00,
2013-04-25 02:30:00,63.5,52.8,30.21,NE,35,2.0,6.0,68,0.00,,,0.00,VWS V14.01,2013-04-25 00:30:00,
2013-04-25 02:33:00,63.5,52.8,30.22,NE,35,1.0,2.0,68,0.00,,,0.00,VWS V14.01,2013-04-25 00:33:00,
2013-04-25 02:38:00,62.9,52.6,30.21,NE,34,3.0,5.0,69,0.00,,,0.00,VWS V14.01,2013-04-25 00:38:00,
2013-04-25 02:40:00,62.7,52.8,30.21,NNE,24,5.0,6.0,70,0.00,,,0.00,VWS V14.01,2013-04-25 00:40:00,
2013-04-25 02:43:00,62.7,52.8,30.21,NNE,16,3.0,5.0,70,0.00,,,0.00,VWS V14.01,2013-04-25 00:43:00,
2013-04-25 02:48:00,62.6,53.1,30.21,NNE,19,3.0,6.0,71,0.00,,,0.00,VWS V14.01,2013-04-25 00:48:00,
2013-04-25 02:50:00,62.6,53.1,30.21,NNE,26,4.0,6.0,71,0.00,,,0.00,VWS V14.01,2013-04-25 00:50:00,
2013-04-25 02:53:00,62.6,53.1,30.21,NNE,24,5.0,7.0,71,0.00,,,0.00,VWS V14.01,2013-04-25 00:53:00,
2013-04-25 02:58:00,62.6,53.1,30.21,NE,42,5.0,8.0,71,0.00,,,0.00,VWS V14.01,2013-04-25 00:58:00,
2013-04-25 03:00:00,62.5,53.0,30.21,NE,42,4.0,8.0,71,0.00,,,0.00,VWS V14.01,2013-04-25 01:00:00,
2013-04-25 03:03:00,62.4,52.9,30.21,NE,41,3.0,5.0,71,0.00,,,0.00,VWS V14.01,2013-04-25 01:03:00,
2013-04-25 03:08:00,62.5,53.0,30.21,NE,41,3.0,5.0,71,0.00,,,0.00,VWS V14.01,2013-04-25 01:08:00,
2013-04-25 03:10:00,62.6,53.1,30.21,NE,41,4.0,5.0,71,0.00,,,0.00,VWS V14.01,2013-04-25 01:10:00,
2013-04-25 03:13:00,62.8,53.3,30.21,NE,41,2.0,4.0,71,0.00,,,0.00,VWS V14.01,2013-04-25 01:13:00,
2013-04-25 03:18:00,62.8,52.9,30.21,NE,41,3.0,4.0,70,0.00,,,0.00,VWS V14.01,2013-04-25 01:18:00,
2013-04-25 03:20:00,62.9,53.0,30.21,NE,41,3.0,5.0,70,0.00,,,0.00,VWS V14.01,2013-04-25 01:20:00,
2013-04-25 03:23:00,63.0,53.1,30.21,NE,41,4.0,4.0,70,0.00,,,0.00,VWS V14.01,2013-04-25 01:23:00,
2013-04-25 03:28:00,64.0,53.2,30.21,NE,41,2.0,4.0,68,0.00,,,0.00,VWS V14.01,2013-04-25 01:28:00,
2013-04-25 03:30:00,64.2,53.0,30.21,NE,41,2.0,4.0,67,0.00,,,0.00,VWS V14.01,2013-04-25 01:30:00,
2013-04-25 03:33:00,64.3,53.1,30.21,NE,41,1.0,2.0,67,0.00,,,0.00,VWS V14.01,2013-04-25 01:33:00,
2013-04-25 03:39:00,64.3,53.1,30.21,NE,41,2.0,2.0,67,0.00,,,0.00,VWS V14.01,2013-04-25 01:39:00,
2013-04-25 03:40:00,64.4,52.8,30.21,NE,41,3.0,3.0,66,0.00,,,0.00,VWS V14.01,2013-04-25 01:40:00,
2013-04-25 03:44:00,64.6,53.0,30.21,NE,41,2.0,3.0,66,0.00,,,0.00,VWS V14.01,2013-04-25 01:44:00,
2013-04-25 03:49:00,64.9,52.9,30.21,NE,41,3.0,4.0,65,0.00,,,0.00,VWS V14.01,2013-04-25 01:49:00,
2013-04-25 03:50:00,65.2,53.2,30.21,NE,41,2.0,4.0,65,0.00,,,0.00,VWS V14.01,2013-04-25 01:50:00,
2013-04-25 03:54:00,65.2,53.2,30.21,NE,41,1.0,3.0,65,0.00,,,0.00,VWS V14.01,2013-04-25 01:54:00,
2013-04-25 03:59:00,65.2,53.2,30.21,NE,41,0.0,3.0,65,0.00,,,0.00,VWS V14.01,2013-04-25 01:59:00,
2013-04-25 04:00:00,65.3,53.2,30.22,NE,41,0.0,3.0,65,0.00,,,0.00,VWS V14.01,2013-04-25 02:00:00,
2013-04-25 04:04:00,65.3,53.2,30.22,NE,41,1.0,1.0,65,0.00,,,0.00,VWS V14.01,2013-04-25 02:04:00,
2013-04-25 04:09:00,64.9,52.9,30.22,NE,41,1.0,2.0,65,0.00,,,0.00,VWS V14.01,2013-04-25 02:09:00,
2013-04-25 04:10:00,64.8,52.8,30.22,NE,41,1.0,2.0,65,0.00,,,0.00,VWS V14.01,2013-04-25 02:10:00,
2013-04-25 04:14:00,64.7,53.1,30.22,NE,41,2.0,2.0,66,0.00,,,0.00,VWS V14.01,2013-04-25 02:14:00,
2013-04-25 04:19:00,64.6,53.0,30.22,NE,41,3.0,3.0,66,0.00,,,0.00,VWS V14.01,2013-04-25 02:19:00,
2013-04-25 04:20:00,64.2,52.6,30.22,NE,41,4.0,5.0,66,0.00,,,0.00,VWS V14.01,2013-04-25 02:20:00,
2013-04-25 04:24:00,64.1,52.9,30.22,NE,41,3.0,5.0,67,0.00,,,0.00,VWS V14.01,2013-04-25 02:24:00,
2013-04-25 04:29:00,64.4,52.8,30.22,NE,41,2.0,5.0,66,0.00,,,0.00,VWS V14.01,2013-04-25 02:29:00,
2013-04-25 04:30:00,64.4,52.8,30.22,NE,41,4.0,5.0,66,0.00,,,0.00,VWS V14.01,2013-04-25 02:30:00,
2013-04-25 04:34:00,64.4,52.8,30.22,NE,41,3.0,4.0,66,0.00,,,0.00,VWS V14.01,2013-04-25 02:34:00,
2013-04-25 04:39:00,63.9,52.7,30.22,NE,41,4.0,5.0,67,0.00,,,0.00,VWS V14.01,2013-04-25 02:39:00,
2013-04-25 04:40:00,63.7,52.5,30.22,NE,41,2.0,5.0,67,0.00,,,0.00,VWS V14.01,2013-04-25 02:40:00,
2013-04-25 04:44:00,63.5,52.4,30.22,NE,41,2.0,3.0,67,0.00,,,0.00,VWS V14.01,2013-04-25 02:44:00,
2013-04-25 04:49:00,63.5,52.4,30.22,NE,41,4.0,5.0,67,0.00,,,0.00,VWS V14.01,2013-04-25 02:49:00,
2013-04-25 04:50:00,63.6,52.5,30.22,NE,41,3.0,5.0,67,0.00,,,0.00,VWS V14.01,2013-04-25 02:50:00,
2013-04-25 04:54:00,63.8,52.2,30.22,NE,41,2.0,4.0,66,0.00,,,0.00,VWS V14.01,2013-04-25 02:54:00,
2013-04-25 04:59:00,63.8,51.8,30.22,NE,41,3.0,5.0,65,0.00,,,0.00,VWS V14.01,2013-04-25 02:59:00,
2013-04-25 05:00:00,63.7,51.7,30.22,NE,41,3.0,5.0,65,0.00,,,0.00,VWS V14.01,2013-04-25 03:00:00,
2013-04-25 05:04:00,63.3,51.8,30.22,NE,38,5.0,5.0,66,0.00,,,0.00,VWS V14.01,2013-04-25 03:04:00,
2013-04-25 05:09:00,63.7,51.7,30.22,NE,41,4.0,5.0,65,0.00,,,0.00,VWS V14.01,2013-04-25 03:09:00,
2013-04-25 05:10:00,63.9,51.5,30.22,NE,34,7.0,7.0,64,0.00,,,0.00,VWS V14.01,2013-04-25 03:10:00,
2013-04-25 05:14:00,64.3,51.5,30.22,NE,36,3.0,7.0,63,0.00,,,0.00,VWS V14.01,2013-04-25 03:14:00,
2013-04-25 05:19:00,64.6,51.3,30.21,NE,45,7.0,8.0,62,0.00,,,0.00,VWS V14.01,2013-04-25 03:19:00,
2013-04-25 05:20:00,65.0,51.2,30.21,NE,42,4.0,8.0,61,0.00,,,0.00,VWS V14.01,2013-04-25 03:20:00,
2013-04-25 05:24:00,65.4,51.2,30.21,NE,42,3.0,5.0,60,0.00,,,0.00,VWS V14.01,2013-04-25 03:24:00,
2013-04-25 05:29:00,65.8,51.5,30.21,NE,40,5.0,7.0,60,0.00,,,0.00,VWS V14.01,2013-04-25 03:29:00,
2013-04-25 05:30:00,65.8,51.5,30.21,NE,38,6.0,7.0,60,0.00,,,0.00,VWS V14.01,2013-04-25 03:30:00,
2013-04-25 05:34:00,65.3,51.1,30.20,NE,34,7.0,8.0,60,0.00,,,0.00,VWS V14.01,2013-04-25 03:34:00,
2013-04-25 05:39:00,64.8,51.0,30.20,NE,38,5.0,8.0,61,0.00,,,0.00,VWS V14.01,2013-04-25 03:39:00,
2013-04-25 05:40:00,64.7,51.0,30.20,NE,42,6.0,8.0,61,0.00,,,0.00,VWS V14.01,2013-04-25 03:40:00,
2013-04-25 05:44:00,64.1,51.3,30.20,NE,36,6.0,7.0,63,0.00,,,0.00,VWS V14.01,2013-04-25 03:44:00,
2013-04-25 05:49:00,63.8,51.0,30.20,NNE,31,3.0,7.0,63,0.00,,,0.00,VWS V14.01,2013-04-25 03:49:00,
2013-04-25 05:50:00,63.8,51.0,30.20,NNE,31,3.0,7.0,63,0.00,,,0.00,VWS V14.01,2013-04-25 03:50:00,
2013-04-25 05:54:00,63.8,51.0,30.21,NNE,31,0.0,3.0,63,0.00,,,0.00,VWS V14.01,2013-04-25 03:54:00,
2013-04-25 05:59:00,63.7,50.9,30.21,NNE,30,3.0,4.0,63,0.00,,,0.00,VWS V14.01,2013-04-25 03:59:00,
2013-04-25 06:00:00,63.5,50.7,30.21,NNE,28,0.0,4.0,63,0.00,,,0.00,VWS V14.01,2013-04-25 04:00:00,
2013-04-25 06:01:00,63.6,50.8,30.21,NNE,28,2.0,4.0,63,0.00,,,0.00,VWS V14.01,2013-04-25 04:01:00,
2013-04-25 06:06:00,63.1,50.7,30.21,NNE,28,3.0,5.0,64,0.00,,,0.00,VWS V14.01,2013-04-25 04:06:00,
2013-04-25 06:10:00,63.1,51.2,30.21,NNE,33,5.0,5.0,65,0.00,,,0.00,VWS V14.01,2013-04-25 04:10:00,
2013-04-25 06:11:00,63.1,51.2,30.21,NE,35,4.0,5.0,65,0.00,,,0.00,VWS V14.01,2013-04-25 04:11:00,
2013-04-25 06:16:00,63.0,50.7,30.20,NNE,32,3.0,5.0,64,0.00,,,0.00,VWS V14.01,2013-04-25 04:16:00,
2013-04-25 06:20:00,63.1,50.3,30.20,NNE,21,7.0,7.0,63,0.00,,,0.00,VWS V14.01,2013-04-25 04:20:00,
2013-04-25 06:21:00,63.1,50.3,30.20,NNE,26,5.0,5.0,63,0.00,,,0.00,VWS V14.01,2013-04-25 04:21:00,
2013-04-25 06:26:00,63.4,49.7,30.20,NNE,33,4.0,7.0,61,0.00,,,0.00,VWS V14.01,2013-04-25 04:26:00,
2013-04-25 06:30:00,63.5,49.8,30.20,NNE,19,7.0,7.0,61,0.00,,,0.00,VWS V14.01,2013-04-25 04:30:00,
2013-04-25 06:31:00,63.5,49.8,30.20,NNE,32,6.0,7.0,61,0.00,,,0.00,VWS V14.01,2013-04-25 04:31:00,
2013-04-25 06:36:00,63.2,50.0,30.20,NE,46,6.0,10.0,62,0.00,,,0.00,VWS V14.01,2013-04-25 04:36:00,
2013-04-25 06:40:00,63.2,50.0,30.20,NNE,31,7.0,10.0,62,0.00,,,0.00,VWS V14.01,2013-04-25 04:40:00,
2013-04-25 06:41:00,63.2,50.0,30.20,NNE,30,6.0,10.0,62,0.00,,,0.00,VWS V14.01,2013-04-25 04:41:00,
2013-04-25 06:46:00,63.7,50.0,30.20,NE,36,5.0,8.0,61,0.00,,,0.00,VWS V14.01,2013-04-25 04:46:00,
2013-04-25 06:50:00,64.1,49.5,30.20,NE,40,5.0,8.0,59,0.00,,,0.00,VWS V14.01,2013-04-25 04:50:00,
2013-04-25 06:51:00,64.1,49.5,30.20,NE,40,4.0,8.0,59,0.00,,,0.00,VWS V14.01,2013-04-25 04:51:00,
2013-04-25 06:56:00,64.2,49.6,30.20,NE,40,2.0,5.0,59,0.00,,,0.00,VWS V14.01,2013-04-25 04:56:00,
2013-04-25 07:00:00,64.8,50.6,30.20,NE,38,1.0,5.0,60,0.00,,,0.00,VWS V14.01,2013-04-25 05:00:00,
2013-04-25 07:02:00,64.8,50.6,30.20,NE,38,3.0,5.0,60,0.00,,,0.00,VWS V14.01,2013-04-25 05:02:00,
2013-04-25 07:07:00,64.6,50.4,30.20,NE,38,4.0,4.0,60,0.00,,,0.00,VWS V14.01,2013-04-25 05:07:00,
2013-04-25 07:10:00,64.1,50.0,30.20,NE,39,4.0,4.0,60,0.00,,,0.00,VWS V14.01,2013-04-25 05:10:00,
2013-04-25 07:12:00,64.1,50.0,30.20,NE,38,3.0,4.0,60,0.00,,,0.00,VWS V14.01,2013-04-25 05:12:00,
2013-04-25 07:17:00,63.9,50.6,30.20,NE,38,4.0,4.0,62,0.00,,,0.00,VWS V14.01,2013-04-25 05:17:00,
2013-04-25 07:20:00,63.4,50.6,30.20,NE,40,3.0,5.0,63,0.00,,,0.00,VWS V14.01,2013-04-25 05:20:00,
2013-04-25 07:22:00,63.4,50.6,30.20,NE,40,4.0,4.0,63,0.00,,,0.00,VWS V14.01,2013-04-25 05:22:00,
2013-04-25 07:27:00,63.5,50.7,30.20,NE,40,3.0,4.0,63,0.00,,,0.00,VWS V14.01,2013-04-25 05:27:00,
2013-04-25 07:30:00,63.5,51.1,30.20,NE,40,0.0,4.0,64,0.00,,,0.00,VWS V14.01,2013-04-25 05:30:00,
2013-04-25 07:32:00,63.6,51.6,30.20,NE,40,0.0,0.0,65,0.00,,,0.00,VWS V14.01,2013-04-25 05:32:00,
2013-04-25 07:37:00,63.8,51.8,30.19,NE,40,4.0,4.0,65,0.00,,,0.00,VWS V14.01,2013-04-25 05:37:00,
2013-04-25 07:40:00,64.3,52.3,30.19,NE,40,3.0,4.0,65,0.00,,,0.00,VWS V14.01,2013-04-25 05:40:00,
2013-04-25 07:42:00,64.3,52.3,30.19,NE,40,4.0,5.0,65,0.00,,,0.00,VWS V14.01,2013-04-25 05:42:00,
2013-04-25 07:47:00,64.2,51.8,30.19,NE,40,0.0,5.0,64,0.00,,,0.00,VWS V14.01,2013-04-25 05:47:00,
2013-04-25 07:50:00,64.8,51.5,30.19,NE,40,0.0,5.0,62,0.00,,,0.00,VWS V14.01,2013-04-25 05:50:00,
2013-04-25 07:52:00,64.9,51.6,30.19,NE,40,0.0,1.0,62,0.00,,,0.00,VWS V14.01,2013-04-25 05:52:00,
2013-04-25 07:57:00,65.7,51.9,30.19,NE,40,0.0,1.0,61,0.00,,,0.00,VWS V14.01,2013-04-25 05:57:00,
2013-04-25 08:00:00,66.2,51.5,30.19,NE,40,1.0,1.0,59,0.00,,,0.00,VWS V14.01,2013-04-25 06:00:00,
2013-04-25 08:02:00,66.4,51.7,30.19,NE,40,0.0,0.0,59,0.00,,,0.00,VWS V14.01,2013-04-25 06:02:00,
2013-04-25 08:07:00,66.6,51.8,30.19,NE,40,0.0,1.0,59,0.00,,,0.00,VWS V14.01,2013-04-25 06:07:00,
2013-04-25 08:10:00,66.7,51.9,30.19,NE,40,0.0,1.0,59,0.00,,,0.00,VWS V14.01,2013-04-25 06:10:00,
2013-04-25 08:12:00,66.7,51.9,30.19,NE,40,0.0,0.0,59,0.00,,,0.00,VWS V14.01,2013-04-25 06:12:00,
2013-04-25 08:17:00,66.6,52.3,30.19,NE,40,0.0,1.0,60,0.00,,,0.00,VWS V14.01,2013-04-25 06:17:00,
2013-04-25 08:20:00,66.8,52.9,30.20,NE,40,0.0,1.0,61,0.00,,,0.00,VWS V14.01,2013-04-25 06:20:00,
2013-04-25 08:22:00,66.8,52.9,30.20,NE,40,0.0,0.0,61,0.00,,,0.00,VWS V14.01,2013-04-25 06:22:00,
2013-04-25 08:27:00,67.0,52.2,30.20,NE,40,0.0,1.0,59,0.00,,,0.00,VWS V14.01,2013-04-25 06:27:00,
2013-04-25 08:30:00,67.2,52.4,30.20,NE,40,0.0,1.0,59,0.00,,,0.00,VWS V14.01,2013-04-25 06:30:00,
2013-04-25 08:32:00,67.2,52.4,30.20,NE,40,0.0,0.0,59,0.00,,,0.00,VWS V14.01,2013-04-25 06:32:00,
2013-04-25 08:37:00,67.8,51.5,30.19,NE,40,2.0,2.0,56,0.00,,,0.00,VWS V14.01,2013-04-25 06:37:00,
2013-04-25 08:40:00,67.8,52.0,30.20,NE,40,1.0,2.0,57,0.00,,,0.00,VWS V14.01,2013-04-25 06:40:00,
2013-04-25 08:42:00,67.8,52.5,30.19,NE,40,0.0,1.0,58,0.00,,,0.00,VWS V14.01,2013-04-25 06:42:00,
2013-04-25 08:47:00,67.9,52.6,30.20,NE,40,2.0,2.0,58,0.00,,,0.00,VWS V14.01,2013-04-25 06:47:00,
2013-04-25 08:50:00,68.1,53.2,30.20,NE,40,0.0,2.0,59,0.00,,,0.00,VWS V14.01,2013-04-25 06:50:00,
2013-04-25 08:52:00,68.1,53.7,30.19,NE,40,0.0,0.0,60,0.00,,,0.00,VWS V14.01,2013-04-25 06:52:00,
2013-04-25 08:57:00,68.5,54.5,30.19,NE,40,2.0,2.0,61,0.00,,,0.00,VWS V14.01,2013-04-25 06:57:00,
2013-04-25 09:00:00,68.5,54.5,30.19,NE,40,3.0,4.0,61,0.00,,,0.00,VWS V14.01,2013-04-25 07:00:00,
2013-04-25 09:02:00,68.5,54.5,30.19,NE,40,3.0,3.0,61,0.00,,,0.00,VWS V14.01,2013-04-25 07:02:00,
2013-04-25 09:07:00,68.8,54.8,30.19,NE,42,3.0,3.0,61,0.00,,,0.00,VWS V14.01,2013-04-25 07:07:00,
2013-04-25 09:10:00,69.7,53.3,30.19,NE,44,0.0,4.0,56,0.00,,,0.00,VWS V14.01,2013-04-25 07:10:00,
2013-04-25 09:12:00,69.9,54.0,30.19,NE,44,0.0,0.0,57,0.00,,,0.00,VWS V14.01,2013-04-25 07:12:00,
2013-04-25 09:17:00,69.7,54.8,30.20,NE,34,1.0,4.0,59,0.00,,,0.00,VWS V14.01,2013-04-25 07:17:00,
2013-04-25 09:20:00,68.9,54.0,30.20,North,5,3.0,4.0,59,0.00,,,0.00,VWS V14.01,2013-04-25 07:20:00,
2013-04-25 09:22:00,68.9,53.5,30.20,North,5,2.0,4.0,58,0.00,,,0.00,VWS V14.01,2013-04-25 07:22:00,
2013-04-25 09:27:00,69.1,54.2,30.20,North,5,1.0,4.0,59,0.00,,,0.00,VWS V14.01,2013-04-25 07:27:00,
2013-04-25 09:30:00,69.5,53.6,30.20,North,5,0.0,4.0,57,0.00,,,0.00,VWS V14.01,2013-04-25 07:30:00,
2013-04-25 09:32:00,69.6,53.7,30.20,North,5,0.0,0.0,57,0.00,,,0.00,VWS V14.01,2013-04-25 07:32:00,
2013-04-25 09:37:00,70.1,54.2,30.20,North,5,0.0,2.0,57,0.00,,,0.00,VWS V14.01,2013-04-25 07:37:00,
2013-04-25 09:40:00,70.2,53.3,30.20,North,5,2.0,4.0,55,0.00,,,0.00,VWS V14.01,2013-04-25 07:40:00,
2013-04-25 09:43:00,70.2,53.3,30.20,North,5,1.0,2.0,55,0.00,,,0.00,VWS V14.01,2013-04-25 07:43:00,
2013-04-25 09:48:00,70.2,52.8,30.20,North,5,1.0,3.0,54,0.00,,,0.00,VWS V14.01,2013-04-25 07:48:00,
2013-04-25 09:50:00,70.3,52.9,30.20,North,360,4.0,4.0,54,0.00,,,0.00,VWS V14.01,2013-04-25 07:50:00,
2013-04-25 09:53:00,70.2,52.8,30.20,North,360,2.0,4.0,54,0.00,,,0.00,VWS V14.01,2013-04-25 07:53:00,
2013-04-25 09:58:00,70.7,53.8,30.20,WNW,283,4.0,5.0,55,0.00,,,0.00,VWS V14.01,2013-04-25 07:58:00,
2013-04-25 10:00:00,69.7,52.8,30.20,WSW,257,5.0,5.0,55,0.00,,,0.00,VWS V14.01,2013-04-25 08:00:00,
2013-04-25 10:03:00,69.5,53.1,30.20,WSW,257,2.0,5.0,56,0.00,,,0.00,VWS V14.01,2013-04-25 08:03:00,
2013-04-25 10:08:00,69.4,53.0,30.20,WSW,257,1.0,5.0,56,0.00,,,0.00,VWS V14.01,2013-04-25 08:08:00,
2013-04-25 10:10:00,69.4,52.5,30.20,WSW,257,4.0,6.0,55,0.00,,,0.00,VWS V14.01,2013-04-25 08:10:00,
2013-04-25 10:13:00,69.4,52.5,30.20,WSW,257,3.0,5.0,55,0.00,,,0.00,VWS V14.01,2013-04-25 08:13:00,
2013-04-25 10:18:00,69.2,51.9,30.20,WSW,257,2.0,6.0,54,0.00,,,0.00,VWS V14.01,2013-04-25 08:18:00,
2013-04-25 10:20:00,69.7,53.3,30.21,WSW,257,2.0,6.0,56,0.00,,,0.00,VWS V14.01,2013-04-25 08:20:00,
2013-04-25 10:23:00,69.7,53.3,30.21,WSW,257,3.0,3.0,56,0.00,,,0.00,VWS V14.01,2013-04-25 08:23:00,
2013-04-25 10:28:00,70.0,54.1,30.21,West,268,5.0,6.0,57,0.00,,,0.00,VWS V14.01,2013-04-25 08:28:00,
2013-04-25 10:30:00,70.2,54.3,30.21,West,268,1.0,6.0,57,0.00,,,0.00,VWS V14.01,2013-04-25 08:30:00,
2013-04-25 10:33:00,70.3,54.4,30.21,West,268,0.0,1.0,57,0.00,,,0.00,VWS V14.01,2013-04-25 08:33:00,
2013-04-25 10:38:00,70.8,54.3,30.21,West,268,5.0,5.0,56,0.00,,,0.00,VWS V14.01,2013-04-25 08:38:00,
2013-04-25 10:40:00,70.7,53.8,30.21,West,268,1.0,5.0,55,0.00,,,0.00,VWS V14.01,2013-04-25 08:40:00,
2013-04-25 10:43:00,70.8,53.8,30.21,West,268,4.0,5.0,55,0.00,,,0.00,VWS V14.01,2013-04-25 08:43:00,
2013-04-25 10:48:00,70.7,53.8,30.21,West,267,3.0,6.0,55,0.00,,,0.00,VWS V14.01,2013-04-25 08:48:00,
2013-04-25 10:50:00,70.8,53.3,30.21,West,267,1.0,6.0,54,0.00,,,0.00,VWS V14.01,2013-04-25 08:50:00,
2013-04-25 10:53:00,70.9,54.0,30.21,West,267,4.0,4.0,55,0.00,,,0.00,VWS V14.01,2013-04-25 08:53:00,
2013-04-25 10:58:00,71.0,53.5,30.21,West,267,2.0,5.0,54,0.00,,,0.00,VWS V14.01,2013-04-25 08:58:00,
2013-04-25 11:00:00,71.1,53.1,30.21,West,267,1.0,5.0,53,0.00,,,0.00,VWS V14.01,2013-04-25 09:00:00,
2013-04-25 11:03:00,71.3,53.3,30.21,West,267,0.0,2.0,53,0.00,,,0.00,VWS V14.01,2013-04-25 09:03:00,
2013-04-25 11:08:00,71.8,53.2,30.21,West,267,1.0,3.0,52,0.00,,,0.00,VWS V14.01,2013-04-25 09:08:00,
2013-04-25 11:10:00,72.1,53.5,30.21,West,267,1.0,4.0,52,0.00,,,0.00,VWS V14.01,2013-04-25 09:10:00,
2013-04-25 11:13:00,72.3,53.7,30.21,West,267,1.0,2.0,52,0.00,,,0.00,VWS V14.01,2013-04-25 09:13:00,
2013-04-25 11:18:00,72.5,53.4,30.21,West,267,2.0,5.0,51,0.00,,,0.00,VWS V14.01,2013-04-25 09:18:00,
2013-04-25 11:20:00,72.9,53.2,30.21,West,267,1.0,5.0,50,0.00,,,0.00,VWS V14.01,2013-04-25 09:20:00,
2013-04-25 11:23:00,73.1,53.4,30.21,West,267,0.0,1.0,50,0.00,,,0.00,VWS V14.01,2013-04-25 09:23:00,
2013-04-25 11:28:00,73.7,53.4,30.22,West,267,3.0,4.0,49,0.00,,,0.00,VWS V14.01,2013-04-25 09:28:00,
2013-04-25 11:30:00,74.1,53.7,30.22,West,267,3.0,4.0,49,0.00,,,0.00,VWS V14.01,2013-04-25 09:30:00,
2013-04-25 11:33:00,74.2,53.8,30.22,West,267,2.0,4.0,49,0.00,,,0.00,VWS V14.01,2013-04-25 09:33:00,
2013-04-25 11:38:00,73.9,52.4,30.22,West,262,4.0,5.0,47,0.00,,,0.00,VWS V14.01,2013-04-25 09:38:00,
2013-04-25 11:40:00,74.0,52.5,30.22,West,262,2.0,5.0,47,0.00,,,0.00,VWS V14.01,2013-04-25 09:40:00,
2013-04-25 11:43:00,74.1,53.2,30.21,West,262,3.0,4.0,48,0.00,,,0.00,VWS V14.01,2013-04-25 09:43:00,
2013-04-25 11:48:00,74.2,52.7,30.22,West,262,4.0,6.0,47,0.00,,,0.00,VWS V14.01,2013-04-25 09:48:00,
2013-04-25 11:50:00,74.8,53.2,30.22,West,263,1.0,6.0,47,0.00,,,0.00,VWS V14.01,2013-04-25 09:50:00,
2013-04-25 11:53:00,75.1,53.5,30.21,West,263,2.0,5.0,47,0.00,,,0.00,VWS V14.01,2013-04-25 09:53:00,
2013-04-25 11:58:00,75.2,52.4,30.22,WSW,251,5.0,7.0,45,0.00,,,0.00,VWS V14.01,2013-04-25 09:58:00,
2013-04-25 12:00:00,74.7,52.0,30.22,WSW,258,6.0,7.0,45,0.00,,,0.00,VWS V14.01,2013-04-25 10:00:00,
2013-04-25 12:03:00,74.7,52.6,30.22,WSW,257,4.0,6.0,46,0.00,,,0.00,VWS V14.01,2013-04-25 10:03:00,
2013-04-25 12:08:00,74.2,52.7,30.22,WSW,249,1.0,7.0,47,0.00,,,0.00,VWS V14.01,2013-04-25 10:08:00,
2013-04-25 12:10:00,74.6,52.5,30.22,WSW,253,4.0,7.0,46,0.00,,,0.00,VWS V14.01,2013-04-25 10:10:00,
2013-04-25 12:13:00,74.5,51.8,30.21,WSW,255,2.0,6.0,45,0.00,,,0.00,VWS V14.01,2013-04-25 10:13:00,
2013-04-25 12:18:00,74.5,52.4,30.21,WSW,254,1.0,6.0,46,0.00,,,0.00,VWS V14.01,2013-04-25 10:18:00,
2013-04-25 12:20:00,75.2,52.4,30.21,WSW,254,4.0,6.0,45,0.00,,,0.00,VWS V14.01,2013-04-25 10:20:00,
2013-04-25 12:23:00,75.2,52.4,30.21,WSW,254,2.0,4.0,45,0.00,,,0.00,VWS V14.01,2013-04-25 10:23:00,
2013-04-25 12:28:00,75.6,52.2,30.21,WSW,254,3.0,5.0,44,0.00,,,0.00,VWS V14.01,2013-04-25 10:28:00,
2013-04-25 12:30:00,75.7,51.0,30.21,WSW,250,3.0,6.0,42,0.00,,,0.00,VWS V14.01,2013-04-25 10:30:00,
2013-04-25 12:33:00,75.7,51.6,30.21,WSW,252,4.0,4.0,43,0.00,,,0.00,VWS V14.01,2013-04-25 10:33:00,
2013-04-25 12:38:00,75.3,51.9,30.21,WSW,240,5.0,8.0,44,0.00,,,0.00,VWS V14.01,2013-04-25 10:38:00,
2013-04-25 12:40:00,75.0,54.6,30.21,SSW,203,5.0,8.0,49,0.00,,,0.00,VWS V14.01,2013-04-25 10:40:00,
2013-04-25 12:43:00,74.5,53.0,30.21,SSW,203,4.0,6.0,47,0.00,,,0.00,VWS V14.01,2013-04-25 10:43:00,
2013-04-25 12:48:00,73.9,50.6,30.21,SW,214,6.0,7.0,44,0.00,,,0.00,VWS V14.01,2013-04-25 10:48:00,
2013-04-25 12:50:00,74.3,51.6,30.21,SW,225,5.0,7.0,45,0.00,,,0.00,VWS V14.01,2013-04-25 10:50:00,
2013-04-25 12:53:00,74.5,51.8,30.21,SW,221,4.0,5.0,45,0.00,,,0.00,VWS V14.01,2013-04-25 10:53:00,
2013-04-25 12:58:00,74.7,50.1,30.21,SW,220,2.0,5.0,42,0.00,,,0.00,VWS V14.01,2013-04-25 10:58:00,
2013-04-25 13:00:00,75.8,50.5,30.21,SW,220,0.0,5.0,41,0.00,,,0.00,VWS V14.01,2013-04-25 11:00:00,
2013-04-25 13:03:00,75.9,51.8,30.21,SW,220,4.0,5.0,43,0.00,,,0.00,VWS V14.01,2013-04-25 11:03:00,
2013-04-25 13:08:00,76.1,52.6,30.21,WSW,239,2.0,7.0,44,0.00,,,0.00,VWS V14.01,2013-04-25 11:08:00,
2013-04-25 13:10:00,75.5,52.1,30.21,SW,228,4.0,7.0,44,0.00,,,0.00,VWS V14.01,2013-04-25 11:10:00,
2013-04-25 13:13:00,75.5,50.2,30.20,SW,225,5.0,5.0,41,0.00,,,0.00,VWS V14.01,2013-04-25 11:13:00,
2013-04-25 13:18:00,76.2,48.8,30.20,SW,225,2.0,6.0,38,0.00,,,0.00,VWS V14.01,2013-04-25 11:18:00,
2013-04-25 13:20:00,76.8,49.3,30.20,SW,224,3.0,6.0,38,0.00,,,0.00,VWS V14.01,2013-04-25 11:20:00,
2013-04-25 13:23:00,76.7,48.5,30.20,SW,224,2.0,3.0,37,0.00,,,0.00,VWS V14.01,2013-04-25 11:23:00,
2013-04-25 13:28:00,76.3,45.9,30.20,SW,223,3.0,5.0,34,0.00,,,0.00,VWS V14.01,2013-04-25 11:28:00,
2013-04-25 13:30:00,76.4,47.5,30.20,SW,223,2.0,5.0,36,0.00,,,0.00,VWS V14.01,2013-04-25 11:30:00,
2013-04-25 13:33:00,76.3,47.4,30.21,SW,223,1.0,3.0,36,0.00,,,0.00,VWS V14.01,2013-04-25 11:33:00,
2013-04-25 13:38:00,76.8,47.8,30.20,SW,223,1.0,3.0,36,0.00,,,0.00,VWS V14.01,2013-04-25 11:38:00,
2013-04-25 13:40:00,76.9,47.2,30.20,SW,223,1.0,3.0,35,0.00,,,0.00,VWS V14.01,2013-04-25 11:40:00,
2013-04-25 13:43:00,76.9,47.9,30.20,SW,223,3.0,3.0,36,0.00,,,0.00,VWS V14.01,2013-04-25 11:43:00,
2013-04-25 13:48:00,77.1,47.4,30.20,SW,223,3.0,4.0,35,0.00,,,0.00,VWS V14.01,2013-04-25 11:48:00,
2013-04-25 13:50:00,77.0,45.7,30.20,SW,223,0.0,5.0,33,0.00,,,0.00,VWS V14.01,2013-04-25 11:50:00,
2013-04-25 13:53:00,77.0,44.9,30.20,SW,223,0.0,0.0,32,0.00,,,0.00,VWS V14.01,2013-04-25 11:53:00,
2013-04-25 13:58:00,77.6,47.0,30.20,SW,223,3.0,4.0,34,0.00,,,0.00,VWS V14.01,2013-04-25 11:58:00,
2013-04-25 14:00:00,77.7,45.5,30.20,SW,223,0.0,4.0,32,0.00,,,0.00,VWS V14.01,2013-04-25 12:00:00,
2013-04-25 14:03:00,77.9,44.9,30.20,SW,223,0.0,2.0,31,0.00,,,0.00,VWS V14.01,2013-04-25 12:03:00,
2013-04-25 14:08:00,78.3,46.0,30.19,SW,223,0.0,4.0,32,0.00,,,0.00,VWS V14.01,2013-04-25 12:08:00,
2013-04-25 14:10:00,79.0,45.0,30.19,SW,223,2.0,4.0,30,0.00,,,0.00,VWS V14.01,2013-04-25 12:10:00,
2013-04-25 14:13:00,79.1,45.0,30.19,SSW,204,5.0,6.0,30,0.00,,,0.00,VWS V14.01,2013-04-25 12:13:00,
2013-04-25 14:18:00,78.7,43.8,30.19,SSW,205,5.0,6.0,29,0.00,,,0.00,VWS V14.01,2013-04-25 12:18:00,
2013-04-25 14:20:00,78.1,44.2,30.19,SSW,208,0.0,6.0,30,0.00,,,0.00,VWS V14.01,2013-04-25 12:20:00,
2013-04-25 14:23:00,78.2,44.3,30.19,SSW,208,6.0,6.0,30,0.00,,,0.00,VWS V14.01,2013-04-25 12:23:00,
2013-04-25 14:28:00,78.6,43.7,30.19,South,184,4.0,6.0,29,0.00,,,0.00,VWS V14.01,2013-04-25 12:28:00,
2013-04-25 14:30:00,78.3,42.5,30.19,SSW,192,4.0,7.0,28,0.00,,,0.00,VWS V14.01,2013-04-25 12:30:00,
2013-04-25 14:33:00,78.3,42.5,30.19,SSW,192,4.0,5.0,28,0.00,,,0.00,VWS V14.01,2013-04-25 12:33:00,
2013-04-25 14:38:00,78.7,41.0,30.19,SSW,192,0.0,5.0,26,0.00,,,0.00,VWS V14.01,2013-04-25 12:38:00,
2013-04-25 14:40:00,79.0,41.2,30.18,SSW,192,1.0,5.0,26,0.00,,,0.00,VWS V14.01,2013-04-25 12:40:00,
2013-04-25 14:43:00,79.0,42.2,30.18,SSW,192,5.0,5.0,27,0.00,,,0.00,VWS V14.01,2013-04-25 12:43:00,
2013-04-25 14:48:00,78.8,40.0,30.18,South,171,6.0,6.0,25,0.00,,,0.00,VWS V14.01,2013-04-25 12:48:00,
2013-04-25 14:50:00,78.6,38.8,30.18,South,169,4.0,6.0,24,0.00,,,0.00,VWS V14.01,2013-04-25 12:50:00,
2013-04-25 14:53:00,78.6,39.9,30.18,SSE,168,4.0,5.0,25,0.00,,,0.00,VWS V14.01,2013-04-25 12:53:00,
2013-04-25 14:58:00,78.8,40.0,30.18,SSE,168,0.0,5.0,25,0.00,,,0.00,VWS V14.01,2013-04-25 12:58:00,
2013-04-25 15:00:00,79.7,41.8,30.18,South,175,4.0,6.0,26,0.00,,,0.00,VWS V14.01,2013-04-25 13:00:00,
2013-04-25 15:03:00,79.7,44.7,30.18,SSW,200,4.0,5.0,29,0.00,,,0.00,VWS V14.01,2013-04-25 13:03:00,
2013-04-25 15:08:00,79.3,45.2,30.17,SW,219,4.0,6.0,30,0.00,,,0.00,VWS V14.01,2013-04-25 13:08:00,
2013-04-25 15:10:00,79.7,40.8,30.17,SW,214,2.0,6.0,25,0.00,,,0.00,VWS V14.01,2013-04-25 13:10:00,
2013-04-25 15:13:00,79.7,41.8,30.17,SW,215,4.0,6.0,26,0.00,,,0.00,VWS V14.01,2013-04-25 13:13:00,
2013-04-25 15:18:00,79.0,43.2,30.17,WSW,240,6.0,6.0,28,0.00,,,0.00,VWS V14.01,2013-04-25 13:18:00,
2013-04-25 15:20:00,78.3,43.5,30.17,West,263,5.0,7.0,29,0.00,,,0.00,VWS V14.01,2013-04-25 13:20:00,
2013-04-25 15:23:00,78.3,42.5,30.17,West,260,4.0,7.0,28,0.00,,,0.00,VWS V14.01,2013-04-25 13:23:00,
2013-04-25 15:28:00,78.3,42.5,30.17,WSW,249,6.0,8.0,28,0.00,,,0.00,VWS V14.01,2013-04-25 13:28:00,
2013-04-25 15:30:00,77.8,39.2,30.17,WSW,244,5.0,8.0,25,0.00,,,0.00,VWS V14.01,2013-04-25 13:30:00,
2013-04-25 15:33:00,77.7,38.1,30.17,WSW,246,6.0,6.0,24,0.00,,,0.00,VWS V14.01,2013-04-25 13:33:00,
2013-04-25 15:38:00,77.7,39.1,30.17,WSW,248,6.0,6.0,25,0.00,,,0.00,VWS V14.01,2013-04-25 13:38:00,
2013-04-25 15:40:00,77.8,39.2,30.17,WSW,250,4.0,7.0,25,0.00,,,0.00,VWS V14.01,2013-04-25 13:40:00,
2013-04-25 15:43:00,77.9,39.3,30.17,WSW,251,4.0,5.0,25,0.00,,,0.00,VWS V14.01,2013-04-25 13:43:00,
2013-04-25 15:48:00,78.4,40.7,30.16,WSW,250,5.0,5.0,26,0.00,,,0.00,VWS V14.01,2013-04-25 13:48:00,
2013-04-25 15:50:00,78.2,40.5,30.16,WSW,250,4.0,6.0,26,0.00,,,0.00,VWS V14.01,2013-04-25 13:50:00,
2013-04-25 15:53:00,78.3,40.6,30.16,WSW,250,1.0,5.0,26,0.00,,,0.00,VWS V14.01,2013-04-25 13:53:00,
2013-04-25 15:58:00,78.8,41.0,30.16,WSW,250,5.0,6.0,26,0.00,,,0.00,VWS V14.01,2013-04-25 13:58:00,
2013-04-25 16:00:00,78.4,39.7,30.16,WSW,246,5.0,6.0,25,0.00,,,0.00,VWS V14.01,2013-04-25 14:00:00,
2013-04-25 16:03:00,78.1,38.4,30.16,WSW,246,2.0,5.0,24,0.00,,,0.00,VWS V14.01,2013-04-25 14:03:00,
2013-04-25 16:08:00,78.1,39.5,30.16,WSW,246,0.0,5.0,25,0.00,,,0.00,VWS V14.01,2013-04-25 14:08:00,
2013-04-25 16:10:00,78.6,40.9,30.15,WSW,246,0.0,5.0,26,0.00,,,0.00,VWS V14.01,2013-04-25 14:10:00,
2013-04-25 16:13:00,78.8,41.0,30.16,WSW,246,1.0,2.0,26,0.00,,,0.00,VWS V14.01,2013-04-25 14:13:00,
2013-04-25 16:18:00,78.6,39.9,30.15,WSW,246,1.0,4.0,25,0.00,,,0.00,VWS V14.01,2013-04-25 14:18:00,
2013-04-25 16:20:00,78.5,41.8,30.15,WSW,246,0.0,4.0,27,0.00,,,0.00,VWS V14.01,2013-04-25 14:20:00,
2013-04-25 16:23:00,78.5,40.8,30.15,WSW,246,1.0,3.0,26,0.00,,,0.00,VWS V14.01,2013-04-25 14:23:00,
2013-04-25 16:28:00,78.2,40.5,30.15,WSW,246,2.0,4.0,26,0.00,,,0.00,VWS V14.01,2013-04-25 14:28:00,
2013-04-25 16:30:00,78.3,42.5,30.14,WSW,246,2.0,4.0,28,0.00,,,0.00,VWS V14.01,2013-04-25 14:30:00,
2013-04-25 16:33:00,78.3,41.6,30.14,WSW,246,1.0,2.0,27,0.00,,,0.00,VWS V14.01,2013-04-25 14:33:00,
2013-04-25 16:38:00,78.2,40.5,30.14,WSW,246,3.0,4.0,26,0.00,,,0.00,VWS V14.01,2013-04-25 14:38:00,
2013-04-25 16:40:00,78.1,40.5,30.15,WSW,246,3.0,4.0,26,0.00,,,0.00,VWS V14.01,2013-04-25 14:40:00,
2013-04-25 16:43:00,78.0,41.3,30.15,WSW,246,1.0,4.0,27,0.00,,,0.00,VWS V14.01,2013-04-25 14:43:00,
2013-04-25 16:48:00,77.7,41.1,30.14,WSW,246,3.0,5.0,27,0.00,,,0.00,VWS V14.01,2013-04-25 14:48:00,
2013-04-25 16:50:00,77.7,41.1,30.14,WSW,246,2.0,5.0,27,0.00,,,0.00,VWS V14.01,2013-04-25 14:50:00,
2013-04-25 16:53:00,77.6,41.0,30.14,WSW,246,2.0,2.0,27,0.00,,,0.00,VWS V14.01,2013-04-25 14:53:00,
2013-04-25 16:58:00,77.5,40.9,30.14,WSW,246,2.0,4.0,27,0.00,,,0.00,VWS V14.01,2013-04-25 14:58:00,
2013-04-25 17:00:00,77.6,42.0,30.14,WSW,246,1.0,4.0,28,0.00,,,0.00,VWS V14.01,2013-04-25 15:00:00,
2013-04-25 17:03:00,77.7,40.1,30.14,WSW,246,2.0,3.0,26,0.00,,,0.00,VWS V14.01,2013-04-25 15:03:00,
2013-04-25 17:08:00,78.0,41.3,30.14,WSW,246,1.0,3.0,27,0.00,,,0.00,VWS V14.01,2013-04-25 15:08:00,
2013-04-25 17:10:00,78.3,41.6,30.14,WSW,246,0.0,3.0,27,0.00,,,0.00,VWS V14.01,2013-04-25 15:10:00,
2013-04-25 17:13:00,78.5,41.8,30.14,WSW,246,0.0,0.0,27,0.00,,,0.00,VWS V14.01,2013-04-25 15:13:00,
2013-04-25 17:18:00,78.7,41.9,30.14,WSW,246,0.0,1.0,27,0.00,,,0.00,VWS V14.01,2013-04-25 15:18:00,
2013-04-25 17:20:00,78.8,42.0,30.14,WSW,246,0.0,1.0,27,0.00,,,0.00,VWS V14.01,2013-04-25 15:20:00,
2013-04-25 17:23:00,78.8,42.0,30.14,WSW,246,0.0,1.0,27,0.00,,,0.00,VWS V14.01,2013-04-25 15:23:00,
2013-04-25 17:28:00,79.0,42.2,30.14,WSW,246,3.0,3.0,27,0.00,,,0.00,VWS V14.01,2013-04-25 15:28:00,
2013-04-25 17:30:00,78.4,41.7,30.14,WSW,246,3.0,4.0,27,0.00,,,0.00,VWS V14.01,2013-04-25 15:30:00,
2013-04-25 17:33:00,78.1,41.4,30.14,WSW,246,3.0,5.0,27,0.00,,,0.00,VWS V14.01,2013-04-25 15:33:00,
2013-04-25 17:38:00,78.0,40.4,30.14,WSW,246,3.0,5.0,26,0.00,,,0.00,VWS V14.01,2013-04-25 15:38:00,
2013-04-25 17:40:00,77.8,41.2,30.14,WSW,246,1.0,5.0,27,0.00,,,0.00,VWS V14.01,2013-04-25 15:40:00,
2013-04-25 17:43:00,77.8,40.2,30.14,WSW,246,1.0,4.0,26,0.00,,,0.00,VWS V14.01,2013-04-25 15:43:00,
2013-04-25 17:48:00,77.7,41.1,30.14,WSW,246,3.0,4.0,27,0.00,,,0.00,VWS V14.01,2013-04-25 15:48:00,
2013-04-25 17:50:00,77.6,41.0,30.14,WSW,246,2.0,4.0,27,0.00,,,0.00,VWS V14.01,2013-04-25 15:50:00,
2013-04-25 17:53:00,77.5,40.9,30.14,WSW,246,1.0,3.0,27,0.00,,,0.00,VWS V14.01,2013-04-25 15:53:00,
2013-04-25 17:58:00,76.6,44.6,30.14,WSW,252,8.0,9.0,32,0.00,,,0.00,VWS V14.01,2013-04-25 15:58:00,
2013-04-25 18:00:00,75.2,44.9,30.14,WSW,247,4.0,9.0,34,0.00,,,0.00,VWS V14.01,2013-04-25 16:00:00,
2013-04-25 18:03:00,74.9,45.4,30.14,WSW,244,5.0,7.0,35,0.00,,,0.00,VWS V14.01,2013-04-25 16:03:00,
2013-04-25 18:08:00,74.5,45.8,30.14,WSW,244,3.0,7.0,36,0.00,,,0.00,VWS V14.01,2013-04-25 16:08:00,
2013-04-25 18:10:00,74.6,45.9,30.14,WSW,244,0.0,7.0,36,0.00,,,0.00,VWS V14.01,2013-04-25 16:10:00,
2013-04-25 18:13:00,74.6,45.2,30.14,WSW,244,0.0,2.0,35,0.00,,,0.00,VWS V14.01,2013-04-25 16:13:00,
2013-04-25 18:18:00,74.8,45.3,30.14,WSW,244,0.0,2.0,35,0.00,,,0.00,VWS V14.01,2013-04-25 16:18:00,
2013-04-25 18:20:00,75.0,44.8,30.14,WSW,244,0.0,2.0,34,0.00,,,0.00,VWS V14.01,2013-04-25 16:20:00,
2013-04-25 18:23:00,75.0,44.0,30.14,WSW,244,0.0,0.0,33,0.00,,,0.00,VWS V14.01,2013-04-25 16:23:00,
2013-04-25 18:28:00,75.3,45.8,30.14,WSW,244,0.0,1.0,35,0.00,,,0.00,VWS V14.01,2013-04-25 16:28:00,
2013-04-25 18:30:00,75.3,48.0,30.13,WSW,244,2.0,2.0,38,0.00,,,0.00,VWS V14.01,2013-04-25 16:30:00,
2013-04-25 18:33:00,75.2,48.6,30.13,WSW,244,1.0,2.0,39,0.00,,,0.00,VWS V14.01,2013-04-25 16:33:00,
2013-04-25 18:38:00,74.8,48.2,30.13,WSW,244,2.0,3.0,39,0.00,,,0.00,VWS V14.01,2013-04-25 16:38:00,
2013-04-25 18:40:00,74.7,49.5,30.13,WSW,244,0.0,3.0,41,0.00,,,0.00,VWS V14.01,2013-04-25 16:40:00,
2013-04-25 18:43:00,74.6,50.0,30.13,WSW,244,1.0,1.0,42,0.00,,,0.00,VWS V14.01,2013-04-25 16:43:00,
2013-04-25 18:48:00,74.3,49.1,30.13,WSW,244,0.0,2.0,41,0.00,,,0.00,VWS V14.01,2013-04-25 16:48:00,
2013-04-25 18:50:00,74.3,48.4,30.13,WSW,244,0.0,2.0,40,0.00,,,0.00,VWS V14.01,2013-04-25 16:50:00,
2013-04-25 18:54:00,74.3,49.1,30.13,WSW,244,0.0,1.0,41,0.00,,,0.00,VWS V14.01,2013-04-25 16:54:00,
2013-04-25 18:59:00,74.1,47.6,30.13,WSW,244,1.0,3.0,39,0.00,,,0.00,VWS V14.01,2013-04-25 16:59:00,
2013-04-25 19:00:00,74.2,43.3,30.13,WSW,244,1.0,3.0,33,0.00,,,0.00,VWS V14.01,2013-04-25 17:00:00,
2013-04-25 19:04:00,74.6,43.6,30.13,WSW,244,0.0,2.0,33,0.00,,,0.00,VWS V14.01,2013-04-25 17:04:00,
2013-04-25 19:09:00,75.0,45.5,30.13,WSW,244,0.0,2.0,35,0.00,,,0.00,VWS V14.01,2013-04-25 17:09:00,
2013-04-25 19:10:00,75.2,45.7,30.13,WSW,244,0.0,2.0,35,0.00,,,0.00,VWS V14.01,2013-04-25 17:10:00,
2013-04-25 19:14:00,75.2,44.9,30.13,WSW,244,1.0,1.0,34,0.00,,,0.00,VWS V14.01,2013-04-25 17:14:00,
2013-04-25 19:19:00,75.0,47.7,30.13,WSW,244,0.0,2.0,38,0.00,,,0.00,VWS V14.01,2013-04-25 17:19:00,
2013-04-25 19:20:00,74.9,48.3,30.12,WSW,244,0.0,2.0,39,0.00,,,0.00,VWS V14.01,2013-04-25 17:20:00,
2013-04-25 19:24:00,74.8,48.2,30.13,WSW,244,0.0,0.0,39,0.00,,,0.00,VWS V14.01,2013-04-25 17:24:00,
2013-04-25 19:29:00,74.6,50.0,30.13,WSW,244,0.0,0.0,42,0.00,,,0.00,VWS V14.01,2013-04-25 17:29:00,
2013-04-25 19:30:00,74.3,50.4,30.12,WSW,244,0.0,0.0,43,0.00,,,0.00,VWS V14.01,2013-04-25 17:30:00,
2013-04-25 19:34:00,74.1,50.8,30.13,WSW,244,0.0,0.0,44,0.00,,,0.00,VWS V14.01,2013-04-25 17:34:00,
2013-04-25 19:39:00,73.7,51.1,30.12,WSW,244,0.0,0.0,45,0.00,,,0.00,VWS V14.01,2013-04-25 17:39:00,
2013-04-25 19:40:00,73.5,50.9,30.12,WSW,244,0.0,0.0,45,0.00,,,0.00,VWS V14.01,2013-04-25 17:40:00,
2013-04-25 19:44:00,73.3,50.7,30.12,WSW,244,0.0,0.0,45,0.00,,,0.00,VWS V14.01,2013-04-25 17:44:00,
2013-04-25 19:49:00,72.9,47.8,30.12,WSW,244,0.0,1.0,41,0.00,,,0.00,VWS V14.01,2013-04-25 17:49:00,
2013-04-25 19:50:00,72.8,47.8,30.12,WSW,244,2.0,2.0,41,0.00,,,0.00,VWS V14.01,2013-04-25 17:50:00,
2013-04-25 19:54:00,72.9,43.7,30.13,WSW,244,2.0,3.0,35,0.00,,,0.00,VWS V14.01,2013-04-25 17:54:00,
2013-04-25 19:59:00,73.5,41.9,30.13,WSW,244,3.0,3.0,32,0.00,,,0.00,VWS V14.01,2013-04-25 17:59:00,
2013-04-25 20:00:00,73.8,41.3,30.13,WSW,244,2.0,3.0,31,0.00,,,0.00,VWS V14.01,2013-04-25 18:00:00,
2013-04-25 20:04:00,73.9,40.5,30.13,WSW,244,2.0,3.0,30,0.00,,,0.00,VWS V14.01,2013-04-25 18:04:00,
2013-04-25 20:09:00,74.4,40.1,30.13,WSW,244,0.0,3.0,29,0.00,,,0.00,VWS V14.01,2013-04-25 18:09:00,
2013-04-25 20:10:00,74.5,41.1,30.13,WSW,244,2.0,3.0,30,0.00,,,0.00,VWS V14.01,2013-04-25 18:10:00,
2013-04-25 20:14:00,74.2,40.8,30.13,WSW,244,3.0,3.0,30,0.00,,,0.00,VWS V14.01,2013-04-25 18:14:00,
2013-04-25 20:19:00,74.1,39.8,30.13,WSW,244,2.0,3.0,29,0.00,,,0.00,VWS V14.01,2013-04-25 18:19:00,
2013-04-25 20:20:00,74.0,41.5,30.13,WSW,244,1.0,3.0,31,0.00,,,0.00,VWS V14.01,2013-04-25 18:20:00,
2013-04-25 20:24:00,73.6,42.0,30.13,WSW,244,3.0,3.0,32,0.00,,,0.00,VWS V14.01,2013-04-25 18:24:00,
2013-04-25 20:29:00,73.0,40.6,30.13,WSW,244,5.0,5.0,31,0.00,,,0.00,VWS V14.01,2013-04-25 18:29:00,
2013-04-25 20:30:00,72.9,40.5,30.13,West,274,4.0,5.0,31,0.00,,,0.00,VWS V14.01,2013-04-25 18:30:00,
2013-04-25 20:34:00,72.9,40.5,30.13,West,275,3.0,4.0,31,0.00,,,0.00,VWS V14.01,2013-04-25 18:34:00,
2013-04-25 20:39:00,72.3,41.6,30.13,West,275,1.0,4.0,33,0.00,,,0.00,VWS V14.01,2013-04-25 18:39:00,
2013-04-25 20:40:00,72.1,41.4,30.13,West,275,2.0,4.0,33,0.00,,,0.00,VWS V14.01,2013-04-25 18:40:00,
2013-04-25 20:44:00,72.1,40.7,30.13,West,275,1.0,3.0,32,0.00,,,0.00,VWS V14.01,2013-04-25 18:44:00,
2013-04-25 20:49:00,72.3,41.6,30.13,West,275,2.0,3.0,33,0.00,,,0.00,VWS V14.01,2013-04-25 18:49:00,
2013-04-25 20:50:00,72.4,40.1,30.13,West,279,2.0,4.0,31,0.00,,,0.00,VWS V14.01,2013-04-25 18:50:00,
2013-04-25 20:54:00,72.7,41.2,30.13,West,280,3.0,4.0,32,0.00,,,0.00,VWS V14.01,2013-04-25 18:54:00,
2013-04-25 20:59:00,73.6,39.4,30.13,WNW,286,2.0,4.0,29,0.00,,,0.00,VWS V14.01,2013-04-25 18:59:00,
2013-04-25 21:00:00,73.9,39.7,30.13,WNW,286,2.0,4.0,29,0.00,,,0.00,VWS V14.01,2013-04-25 19:00:00,
2013-04-25 21:04:00,74.0,39.8,30.13,WNW,286,3.0,3.0,29,0.00,,,0.00,VWS V14.01,2013-04-25 19:04:00,
2013-04-25 21:09:00,74.3,39.1,30.12,WNW,303,3.0,4.0,28,0.00,,,0.00,VWS V14.01,2013-04-25 19:09:00,
2013-04-25 21:10:00,74.4,41.0,30.12,NW,307,4.0,4.0,30,0.00,,,0.00,VWS V14.01,2013-04-25 19:10:00,
2013-04-25 21:14:00,74.1,41.6,30.12,NW,325,4.0,4.0,31,0.00,,,0.00,VWS V14.01,2013-04-25 19:14:00,
2013-04-25 21:19:00,73.7,41.2,30.12,North,355,3.0,5.0,31,0.00,,,0.00,VWS V14.01,2013-04-25 19:19:00,
2013-04-25 21:20:00,73.7,42.0,30.12,North,355,3.0,5.0,32,0.00,,,0.00,VWS V14.01,2013-04-25 19:20:00,
2013-04-25 21:24:00,73.2,42.4,30.12,North,355,3.0,3.0,33,0.00,,,0.00,VWS V14.01,2013-04-25 19:24:00,
2013-04-25 21:29:00,72.8,44.3,30.12,North,355,4.0,4.0,36,0.00,,,0.00,VWS V14.01,2013-04-25 19:29:00,
2013-04-25 21:30:00,72.7,45.0,30.12,North,5,5.0,5.0,37,0.00,,,0.00,VWS V14.01,2013-04-25 19:30:00,
2013-04-25 21:34:00,73.1,44.6,30.12,NNE,21,6.0,6.0,36,0.00,,,0.00,VWS V14.01,2013-04-25 19:34:00,
2013-04-25 21:39:00,73.8,45.9,30.11,NNE,32,6.0,7.0,37,0.00,,,0.00,VWS V14.01,2013-04-25 19:39:00,
2013-04-25 21:40:00,73.8,45.9,30.11,NE,37,3.0,7.0,37,0.00,,,0.00,VWS V14.01,2013-04-25 19:40:00,
2013-04-25 21:44:00,74.1,45.5,30.11,NE,45,5.0,8.0,36,0.00,,,0.00,VWS V14.01,2013-04-25 19:44:00,
2013-04-25 21:49:00,74.4,45.7,30.11,NE,46,5.0,8.0,36,0.00,,,0.00,VWS V14.01,2013-04-25 19:49:00,
2013-04-25 21:50:00,74.5,46.5,30.11,NE,48,7.0,8.0,37,0.00,,,0.00,VWS V14.01,2013-04-25 19:50:00,
2013-04-25 21:54:00,74.6,46.6,30.10,NE,49,5.0,8.0,37,0.00,,,0.00,VWS V14.01,2013-04-25 19:54:00,
2013-04-25 21:59:00,74.7,47.4,30.10,NE,49,6.0,8.0,38,0.00,,,0.00,VWS V14.01,2013-04-25 19:59:00,
2013-04-25 22:00:00,74.8,48.2,30.10,NE,53,5.0,8.0,39,0.00,,,0.00,VWS V14.01,2013-04-25 20:00:00,
2013-04-25 22:04:00,74.8,49.5,30.10,NE,49,7.0,10.0,41,0.00,,,0.00,VWS V14.01,2013-04-25 20:04:00,
2013-04-25 22:09:00,74.5,50.6,30.09,ENE,67,4.0,10.0,43,0.00,,,0.00,VWS V14.01,2013-04-25 20:09:00,
2013-04-25 22:10:00,74.2,50.3,30.09,ENE,67,8.0,10.0,43,0.00,,,0.00,VWS V14.01,2013-04-25 20:10:00,
2013-04-25 22:14:00,74.1,51.4,30.08,ENE,68,10.0,11.0,45,0.00,,,0.00,VWS V14.01,2013-04-25 20:14:00,
2013-04-25 22:19:00,73.9,52.4,30.08,ENE,72,11.0,12.0,47,0.00,,,0.00,VWS V14.01,2013-04-25 20:19:00,
2013-04-25 22:20:00,73.8,52.9,30.08,NE,55,9.0,15.0,48,0.00,,,0.00,VWS V14.01,2013-04-25 20:20:00,
2013-04-25 22:24:00,73.8,53.5,30.08,NE,53,9.0,13.0,49,0.00,,,0.00,VWS V14.01,2013-04-25 20:24:00,
2013-04-25 22:29:00,73.7,53.9,30.07,NE,53,6.0,13.0,50,0.00,,,0.00,VWS V14.01,2013-04-25 20:29:00,
2013-04-25 22:30:00,73.8,54.0,30.07,ENE,67,10.0,13.0,50,0.00,,,0.00,VWS V14.01,2013-04-25 20:30:00,
2013-04-25 22:34:00,73.8,54.0,30.08,East,80,9.0,10.0,50,0.00,,,0.00,VWS V14.01,2013-04-25 20:34:00,
2013-04-25 22:40:00,74.1,54.3,30.08,ENE,67,8.0,10.0,50,0.00,,,0.00,VWS V14.01,2013-04-25 20:40:00,
2013-04-25 22:45:00,74.1,54.3,30.08,ENE,73,5.0,8.0,50,0.00,,,0.00,VWS V14.01,2013-04-25 20:45:00,
2013-04-25 22:50:00,74.1,54.3,30.09,NE,53,5.0,8.0,50,0.00,,,0.00,VWS V14.01,2013-04-25 20:50:00,
2013-04-25 22:55:00,74.0,54.7,30.09,NE,55,3.0,4.0,51,0.00,,,0.00,VWS V14.01,2013-04-25 20:55:00,
2013-04-25 23:00:00,73.8,54.6,30.09,NE,55,0.0,4.0,51,0.00,,,0.00,VWS V14.01,2013-04-25 21:00:00,
2013-04-25 23:05:00,72.3,55.2,30.09,NNE,24,1.0,4.0,55,0.00,,,0.00,VWS V14.01,2013-04-25 21:05:00,
2013-04-25 23:10:00,71.9,55.9,30.08,NNE,24,0.0,4.0,57,0.00,,,0.00,VWS V14.01,2013-04-25 21:10:00,
2013-04-25 23:15:00,71.6,55.6,30.08,NNE,24,0.0,0.0,57,0.00,,,0.00,VWS V14.01,2013-04-25 21:15:00,
2013-04-25 23:20:00,71.4,55.4,30.09,NNE,24,0.0,0.0,57,0.00,,,0.00,VWS V14.01,2013-04-25 21:20:00,
2013-04-25 23:25:00,71.5,55.5,30.09,NNE,24,0.0,2.0,57,0.00,,,0.00,VWS V14.01,2013-04-25 21:25:00,
2013-04-25 23:30:00,71.2,55.2,30.09,NNE,24,0.0,2.0,57,0.00,,,0.00,VWS V14.01,2013-04-25 21:30:00,
2013-04-25 23:35:00,70.9,55.4,30.09,NNE,24,0.0,1.0,58,0.00,,,0.00,VWS V14.01,2013-04-25 21:35:00,
2013-04-25 23:40:00,70.6,55.1,30.10,NNE,24,0.0,1.0,58,0.00,,,0.00,VWS V14.01,2013-04-25 21:40:00,
2013-04-25 23:45:00,70.5,56.0,30.10,NNE,24,2.0,4.0,60,0.00,,,0.00,VWS V14.01,2013-04-25 21:45:00,
2013-04-25 23:50:00,70.2,55.7,30.10,NNE,24,0.0,4.0,60,0.00,,,0.00,VWS V14.01,2013-04-25 21:50:00,
2013-04-25 23:55:00,70.1,55.6,30.10,NNE,24,0.0,0.0,60,0.00,,,0.00,VWS V14.01,2013-04-25 21:55:00,